Time,TemperatureF,DewpointF,PressureIn,WindDirection,WindDirectionDegrees,WindSpeedMPH,WindSpeedGustMPH,Humidity,HourlyPrecipIn,Conditions,Clouds,dailyrainin,SolarRadiationWatts/m^2,SoftwareType,DateUTC
2013-09-10 00:01:00,61.6,56.0,30.13,ESE,119,0.0,0.0,82,0.00,,,0.00,0,HR-IXPWINDi_r2_v1.2.,2013-09-10 04:01:00,
2013-09-10 00:06:00,61.6,56.0,30.12,ESE,119,0.0,0.0,82,0.00,,,0.00,0,HR-IXPWINDi_r2_v1.2.,2013-09-10 04:06:00,
2013-09-10 00:11:00,61.6,56.0,30.12,ESE,119,0.0,0.0,82,0.00,,,0.00,0,HR-IXPWINDi_r2_v1.2.,2013-09-10 04:11:00,
2013-09-10 00:16:00,61.8,56.2,30.12,ESE,119,0.0,0.0,82,0.00,,,0.00,0,HR-IXPWINDi_r2_v1.2.,2013-09-10 04:16:00,
2013-09-10 00:21:00,62.0,56.4,30.11,ESE,119,0.0,0.0,82,0.00,,,0.00,0,HR-IXPWINDi_r2_v1.2.,2013-09-10 04:21:00,
2013-09-10 00:26:00,62.1,56.5,30.11,ESE,113,0.0,0.0,82,0.00,,,0.00,0,HR-IXPWINDi_r2_v1.2.,2013-09-10 04:26:00,
2013-09-10 00:31:00,62.1,56.5,30.11,ESE,119,0.0,0.0,82,0.00,,,0.00,0,HR-IXPWINDi_r2_v1.2.,2013-09-10 04:31:00,
2013-09-10 00:36:00,62.3,56.7,30.12,ESE,119,0.0,0.0,82,0.00,,,0.00,0,HR-IXPWINDi_r2_v1.2.,2013-09-10 04:36:00,
2013-09-10 00:42:00,62.4,56.8,30.12,ESE,119,0.0,0.0,82,0.00,,,0.00,0,HR-IXPWINDi_r2_v1.2.,2013-09-10 04:42:00,
2013-09-10 00:47:00,62.6,57.3,30.12,ESE,119,0.0,0.0,83,0.00,,,0.00,0,HR-IXPWINDi_r2_v1.2.,2013-09-10 04:47:00,
2013-09-10 00:52:00,62.7,57.1,30.11,ESE,119,0.0,0.0,82,0.00,,,0.00,0,HR-IXPWINDi_r2_v1.2.,2013-09-10 04:52:00,
2013-09-10 00:57:00,62.9,57.3,30.11,ESE,119,0.0,0.0,82,0.00,,,0.00,0,HR-IXPWINDi_r2_v1.2.,2013-09-10 04:57:00,
2013-09-10 01:02:00,63.1,57.8,30.11,ESE,119,0.0,0.0,83,0.00,,,0.00,0,HR-IXPWINDi_r2_v1.2.,2013-09-10 05:02:00,
2013-09-10 01:07:00,63.4,58.1,30.10,ESE,119,0.0,0.0,83,0.00,,,0.00,0,HR-IXPWINDi_r2_v1.2.,2013-09-10 05:07:00,
2013-09-10 01:13:00,63.9,58.9,30.10,ESE,119,0.0,0.0,84,0.00,,,0.00,0,HR-IXPWINDi_r2_v1.2.,2013-09-10 05:13:00,
2013-09-10 01:18:00,64.2,58.9,30.10,ESE,119,0.0,0.0,83,0.00,,,0.00,0,HR-IXPWINDi_r2_v1.2.,2013-09-10 05:18:00,
2013-09-10 01:23:00,64.3,59.0,30.10,ESE,119,0.0,0.0,83,0.00,,,0.00,0,HR-IXPWINDi_r2_v1.2.,2013-09-10 05:23:00,
2013-09-10 01:29:00,64.7,59.4,30.10,ESE,119,0.0,0.0,83,0.00,,,0.00,0,HR-IXPWINDi_r2_v1.2.,2013-09-10 05:29:00,
2013-09-10 01:34:00,65.0,59.3,30.11,ESE,119,0.0,0.0,82,0.00,,,0.00,0,HR-IXPWINDi_r2_v1.2.,2013-09-10 05:34:00,
2013-09-10 01:39:00,65.0,59.3,30.11,ESE,119,0.0,0.0,82,0.00,,,0.00,0,HR-IXPWINDi_r2_v1.2.,2013-09-10 05:39:00,
2013-09-10 01:44:00,65.2,59.5,30.11,ESE,119,0.0,0.0,82,0.00,,,0.00,0,HR-IXPWINDi_r2_v1.2.,2013-09-10 05:44:00,
2013-09-10 01:49:00,65.3,59.6,30.11,ESE,119,0.0,0.0,82,0.00,,,0.00,0,HR-IXPWINDi_r2_v1.2.,2013-09-10 05:49:00,
2013-09-10 01:55:00,65.5,59.8,30.11,ESE,119,0.0,0.0,82,0.00,,,0.00,0,HR-IXPWINDi_r2_v1.2.,2013-09-10 05:55:00,
2013-09-10 02:00:00,65.5,59.8,30.11,ESE,119,0.0,0.0,82,0.00,,,0.00,0,HR-IXPWINDi_r2_v1.2.,2013-09-10 06:00:00,
2013-09-10 02:05:00,65.6,59.9,30.10,ESE,119,0.0,0.0,82,0.00,,,0.00,0,HR-IXPWINDi_r2_v1.2.,2013-09-10 06:05:00,
2013-09-10 02:10:00,65.6,59.9,30.10,ESE,119,0.0,0.0,82,0.00,,,0.00,0,HR-IXPWINDi_r2_v1.2.,2013-09-10 06:10:00,
2013-09-10 02:16:00,65.8,60.1,30.10,ESE,117,0.0,1.0,82,0.00,,,0.00,0,HR-IXPWINDi_r2_v1.2.,2013-09-10 06:16:00,
2013-09-10 02:21:00,66.0,60.3,30.10,ESE,119,0.0,1.0,82,0.00,,,0.00,0,HR-IXPWINDi_r2_v1.2.,2013-09-10 06:21:00,
2013-09-10 02:26:00,66.1,60.4,30.10,ESE,119,0.0,1.0,82,0.00,,,0.00,0,HR-IXPWINDi_r2_v1.2.,2013-09-10 06:26:00,
2013-09-10 02:31:00,66.1,60.4,30.10,ESE,119,0.0,0.0,82,0.00,,,0.00,0,HR-IXPWINDi_r2_v1.2.,2013-09-10 06:31:00,
2013-09-10 02:36:00,66.3,60.6,30.10,ESE,119,0.0,0.0,82,0.00,,,0.00,0,HR-IXPWINDi_r2_v1.2.,2013-09-10 06:36:00,
2013-09-10 02:41:00,66.3,60.6,30.10,ESE,119,0.0,0.0,82,0.00,,,0.00,0,HR-IXPWINDi_r2_v1.2.,2013-09-10 06:41:00,
2013-09-10 02:47:00,66.4,60.7,30.10,ESE,119,0.0,0.0,82,0.00,,,0.00,0,HR-IXPWINDi_r2_v1.2.,2013-09-10 06:47:00,
2013-09-10 02:52:00,66.6,60.9,30.10,ESE,120,0.0,0.0,82,0.00,,,0.00,0,HR-IXPWINDi_r2_v1.2.,2013-09-10 06:52:00,
2013-09-10 02:57:00,66.6,60.9,30.10,ENE,78,0.0,2.0,82,0.00,,,0.00,0,HR-IXPWINDi_r2_v1.2.,2013-09-10 06:57:00,
2013-09-10 03:02:00,66.8,61.1,30.10,ENE,78,0.0,2.0,82,0.00,,,0.00,0,HR-IXPWINDi_r2_v1.2.,2013-09-10 07:02:00,
2013-09-10 03:07:00,66.8,61.1,30.10,ENE,78,0.0,0.0,82,0.00,,,0.00,0,HR-IXPWINDi_r2_v1.2.,2013-09-10 07:07:00,
2013-09-10 03:13:00,66.9,61.2,30.10,ENE,78,0.0,0.0,82,0.00,,,0.00,0,HR-IXPWINDi_r2_v1.2.,2013-09-10 07:13:00,
2013-09-10 03:18:00,66.9,61.2,30.10,ENE,78,0.0,0.0,82,0.00,,,0.00,0,HR-IXPWINDi_r2_v1.2.,2013-09-10 07:18:00,
2013-09-10 03:23:00,67.1,61.4,30.09,ENE,78,0.0,0.0,82,0.00,,,0.00,0,HR-IXPWINDi_r2_v1.2.,2013-09-10 07:23:00,
2013-09-10 03:28:00,67.1,61.4,30.09,ENE,78,0.0,0.0,82,0.00,,,0.00,0,HR-IXPWINDi_r2_v1.2.,2013-09-10 07:28:00,
2013-09-10 03:34:00,67.1,61.4,30.09,ENE,78,0.0,0.0,82,0.00,,,0.00,0,HR-IXPWINDi_r2_v1.2.,2013-09-10 07:34:00,
2013-09-10 03:39:00,67.3,61.6,30.09,ENE,78,0.0,0.0,82,0.00,,,0.00,0,HR-IXPWINDi_r2_v1.2.,2013-09-10 07:39:00,
2013-09-10 03:44:00,67.3,61.6,30.09,ENE,78,0.0,0.0,82,0.00,,,0.00,0,HR-IXPWINDi_r2_v1.2.,2013-09-10 07:44:00,
2013-09-10 03:49:00,67.3,61.6,30.08,ENE,78,0.0,0.0,82,0.00,,,0.00,0,HR-IXPWINDi_r2_v1.2.,2013-09-10 07:49:00,
2013-09-10 03:54:00,67.3,61.6,30.08,ENE,78,0.0,0.0,82,0.00,,,0.00,0,HR-IXPWINDi_r2_v1.2.,2013-09-10 07:54:00,
2013-09-10 03:59:00,67.3,61.6,30.08,ENE,78,0.0,0.0,82,0.00,,,0.00,0,HR-IXPWINDi_r2_v1.2.,2013-09-10 07:59:00,
2013-09-10 04:05:00,67.3,61.6,30.09,ENE,59,0.0,2.0,82,0.00,,,0.00,0,HR-IXPWINDi_r2_v1.2.,2013-09-10 08:05:00,
2013-09-10 04:10:00,67.3,61.6,30.09,ENE,59,0.0,2.0,82,0.00,,,0.00,0,HR-IXPWINDi_r2_v1.2.,2013-09-10 08:10:00,
2013-09-10 04:15:00,67.4,61.6,30.09,North,354,0.0,3.0,82,0.00,,,0.00,0,HR-IXPWINDi_r2_v1.2.,2013-09-10 08:15:00,
2013-09-10 04:21:00,67.6,61.8,30.09,North,354,0.0,3.0,82,0.00,,,0.00,0,HR-IXPWINDi_r2_v1.2.,2013-09-10 08:21:00,
2013-09-10 04:26:00,67.6,61.8,30.09,North,354,0.0,2.0,82,0.00,,,0.00,0,HR-IXPWINDi_r2_v1.2.,2013-09-10 08:26:00,
2013-09-10 04:31:00,67.6,62.2,30.09,North,354,0.0,0.0,83,0.00,,,0.00,0,HR-IXPWINDi_r2_v1.2.,2013-09-10 08:31:00,
2013-09-10 04:36:00,67.6,62.9,30.09,North,354,0.0,0.0,85,0.00,,,0.00,0,HR-IXPWINDi_r2_v1.2.,2013-09-10 08:36:00,
2013-09-10 04:41:00,67.3,62.9,30.09,North,354,0.0,0.0,86,0.00,,,0.00,0,HR-IXPWINDi_r2_v1.2.,2013-09-10 08:41:00,
2013-09-10 04:46:00,67.1,63.0,30.09,North,354,0.0,0.0,87,0.00,,,0.00,0,HR-IXPWINDi_r2_v1.2.,2013-09-10 08:46:00,
2013-09-10 04:51:00,67.1,63.4,30.09,North,354,0.0,0.0,88,0.00,,,0.00,0,HR-IXPWINDi_r2_v1.2.,2013-09-10 08:51:00,
2013-09-10 04:56:00,66.9,63.5,30.09,North,354,0.0,0.0,89,0.00,,,0.00,0,HR-IXPWINDi_r2_v1.2.,2013-09-10 08:56:00,
2013-09-10 05:01:00,66.8,63.4,30.09,North,356,0.0,0.0,89,0.00,,,0.00,0,HR-IXPWINDi_r2_v1.2.,2013-09-10 09:01:00,
2013-09-10 05:07:00,66.8,63.7,30.08,North,356,0.0,0.0,90,0.00,,,0.00,0,HR-IXPWINDi_r2_v1.2.,2013-09-10 09:07:00,
2013-09-10 05:12:00,66.8,64.0,30.08,North,356,0.0,0.0,91,0.00,,,0.00,0,HR-IXPWINDi_r2_v1.2.,2013-09-10 09:12:00,
2013-09-10 05:17:00,66.8,64.0,30.08,North,356,0.0,0.0,91,0.00,,,0.00,0,HR-IXPWINDi_r2_v1.2.,2013-09-10 09:17:00,
2013-09-10 05:23:00,66.8,64.0,30.09,North,356,0.0,0.0,91,0.00,,,0.00,0,HR-IXPWINDi_r2_v1.2.,2013-09-10 09:23:00,
2013-09-10 05:28:00,66.6,64.1,30.09,North,356,0.0,0.0,92,0.00,,,0.00,0,HR-IXPWINDi_r2_v1.2.,2013-09-10 09:28:00,
2013-09-10 05:33:00,66.6,64.1,30.09,North,356,0.0,0.0,92,0.00,,,0.00,0,HR-IXPWINDi_r2_v1.2.,2013-09-10 09:33:00,
2013-09-10 05:38:00,66.6,64.1,30.09,North,356,0.0,0.0,92,0.00,,,0.00,0,HR-IXPWINDi_r2_v1.2.,2013-09-10 09:38:00,
2013-09-10 05:43:00,66.6,64.1,30.09,North,356,0.0,0.0,92,0.00,,,0.00,0,HR-IXPWINDi_r2_v1.2.,2013-09-10 09:43:00,
2013-09-10 05:48:00,66.6,64.1,30.09,North,356,0.0,0.0,92,0.00,,,0.00,0,HR-IXPWINDi_r2_v1.2.,2013-09-10 09:48:00,
2013-09-10 05:54:00,66.8,64.3,30.10,North,356,0.0,0.0,92,0.00,,,0.00,0,HR-IXPWINDi_r2_v1.2.,2013-09-10 09:54:00,
2013-09-10 05:59:00,66.8,64.3,30.10,North,356,0.0,0.0,92,0.00,,,0.00,0,HR-IXPWINDi_r2_v1.2.,2013-09-10 09:59:00,
2013-09-10 06:04:00,66.8,64.3,30.10,North,356,0.0,0.0,92,0.00,,,0.00,0,HR-IXPWINDi_r2_v1.2.,2013-09-10 10:04:00,
2013-09-10 06:09:00,66.9,64.4,30.10,North,356,0.0,0.0,92,0.00,,,0.00,0,HR-IXPWINDi_r2_v1.2.,2013-09-10 10:09:00,
2013-09-10 06:14:00,66.9,64.4,30.10,North,356,0.0,0.0,92,0.00,,,0.00,0,HR-IXPWINDi_r2_v1.2.,2013-09-10 10:14:00,
2013-09-10 06:19:00,66.9,64.4,30.10,North,356,0.0,0.0,92,0.00,,,0.00,0,HR-IXPWINDi_r2_v1.2.,2013-09-10 10:19:00,
2013-09-10 06:25:00,66.9,64.4,30.10,North,356,0.0,0.0,92,0.00,,,0.00,0,HR-IXPWINDi_r2_v1.2.,2013-09-10 10:25:00,
2013-09-10 06:30:00,67.1,64.9,30.10,North,356,0.0,0.0,93,0.00,,,0.00,0,HR-IXPWINDi_r2_v1.2.,2013-09-10 10:30:00,
2013-09-10 06:35:00,67.1,64.9,30.10,North,356,0.0,0.0,93,0.00,,,0.00,0,HR-IXPWINDi_r2_v1.2.,2013-09-10 10:35:00,
2013-09-10 06:40:00,67.1,64.9,30.10,North,356,0.0,0.0,93,0.00,,,0.00,0,HR-IXPWINDi_r2_v1.2.,2013-09-10 10:40:00,
2013-09-10 06:45:00,67.3,65.1,30.10,North,356,0.0,0.0,93,0.00,,,0.00,0,HR-IXPWINDi_r2_v1.2.,2013-09-10 10:45:00,
2013-09-10 06:51:00,67.3,65.1,30.10,North,356,0.0,0.0,93,0.00,,,0.00,0,HR-IXPWINDi_r2_v1.2.,2013-09-10 10:51:00,
2013-09-10 06:56:00,67.3,65.1,30.10,North,356,0.0,0.0,93,0.00,,,0.00,0,HR-IXPWINDi_r2_v1.2.,2013-09-10 10:56:00,
2013-09-10 07:01:00,67.3,65.1,30.10,North,356,0.0,0.0,93,0.00,,,0.00,0,HR-IXPWINDi_r2_v1.2.,2013-09-10 11:01:00,
2013-09-10 07:06:00,67.3,65.1,30.10,North,356,0.0,0.0,93,0.00,,,0.00,0,HR-IXPWINDi_r2_v1.2.,2013-09-10 11:06:00,
2013-09-10 07:12:00,67.4,65.2,30.10,North,356,0.0,0.0,93,0.00,,,0.00,0,HR-IXPWINDi_r2_v1.2.,2013-09-10 11:12:00,
2013-09-10 07:17:00,67.4,65.2,30.10,North,356,0.0,0.0,93,0.00,,,0.00,0,HR-IXPWINDi_r2_v1.2.,2013-09-10 11:17:00,
2013-09-10 07:22:00,67.4,65.2,30.10,North,356,0.0,0.0,93,0.00,,,0.00,0,HR-IXPWINDi_r2_v1.2.,2013-09-10 11:22:00,
2013-09-10 07:27:00,67.6,65.4,30.10,North,356,0.0,0.0,93,0.00,,,0.00,0,HR-IXPWINDi_r2_v1.2.,2013-09-10 11:27:00,
2013-09-10 07:32:00,67.6,65.4,30.10,North,356,0.0,0.0,93,0.00,,,0.00,0,HR-IXPWINDi_r2_v1.2.,2013-09-10 11:32:00,
2013-09-10 07:38:00,67.6,65.4,30.10,North,356,0.0,0.0,93,0.00,,,0.00,0,HR-IXPWINDi_r2_v1.2.,2013-09-10 11:38:00,
2013-09-10 07:43:00,67.8,65.6,30.10,North,356,0.0,0.0,93,0.00,,,0.00,7,HR-IXPWINDi_r2_v1.2.,2013-09-10 11:43:00,
2013-09-10 07:48:00,67.9,66.0,30.10,North,356,0.0,0.0,94,0.00,,,0.00,11,HR-IXPWINDi_r2_v1.2.,2013-09-10 11:48:00,
2013-09-10 07:53:00,67.9,66.0,30.09,North,356,0.0,0.0,94,0.00,,,0.00,12,HR-IXPWINDi_r2_v1.2.,2013-09-10 11:53:00,
2013-09-10 07:58:00,68.1,66.2,30.09,North,356,0.0,0.0,94,0.00,,,0.00,12,HR-IXPWINDi_r2_v1.2.,2013-09-10 11:58:00,
2013-09-10 08:03:00,68.1,66.2,30.09,North,356,0.0,0.0,94,0.00,,,0.00,12,HR-IXPWINDi_r2_v1.2.,2013-09-10 12:03:00,
2013-09-10 08:08:00,68.4,66.5,30.09,North,356,0.0,0.0,94,0.00,,,0.00,16,HR-IXPWINDi_r2_v1.2.,2013-09-10 12:08:00,
2013-09-10 08:13:00,68.4,66.5,30.09,North,356,0.0,0.0,94,0.00,,,0.00,18,HR-IXPWINDi_r2_v1.2.,2013-09-10 12:13:00,
2013-09-10 08:18:00,68.6,66.7,30.09,North,356,0.0,0.0,94,0.00,,,0.00,21,HR-IXPWINDi_r2_v1.2.,2013-09-10 12:18:00,
2013-09-10 08:24:00,68.9,67.0,30.09,North,356,0.0,0.0,94,0.00,,,0.00,21,HR-IXPWINDi_r2_v1.2.,2013-09-10 12:24:00,
2013-09-10 08:29:00,68.9,67.0,30.09,North,356,0.0,0.0,94,0.00,,,0.00,35,HR-IXPWINDi_r2_v1.2.,2013-09-10 12:29:00,
2013-09-10 08:34:00,69.1,67.2,30.09,North,356,0.0,0.0,94,0.00,,,0.00,32,HR-IXPWINDi_r2_v1.2.,2013-09-10 12:34:00,
2013-09-10 08:39:00,69.3,67.4,30.09,North,356,0.0,0.0,94,0.00,,,0.00,30,HR-IXPWINDi_r2_v1.2.,2013-09-10 12:39:00,
2013-09-10 08:44:00,69.4,67.5,30.09,North,356,0.0,0.0,94,0.00,,,0.00,28,HR-IXPWINDi_r2_v1.2.,2013-09-10 12:44:00,
2013-09-10 08:50:00,69.6,67.7,30.09,North,356,0.0,0.0,94,0.00,,,0.00,35,HR-IXPWINDi_r2_v1.2.,2013-09-10 12:50:00,
2013-09-10 08:55:00,69.8,67.9,30.09,North,356,0.0,0.0,94,0.00,,,0.00,42,HR-IXPWINDi_r2_v1.2.,2013-09-10 12:55:00,
2013-09-10 09:00:00,69.9,68.0,30.09,North,356,0.0,0.0,94,0.00,,,0.00,33,HR-IXPWINDi_r2_v1.2.,2013-09-10 13:00:00,
2013-09-10 09:05:00,70.1,68.2,30.10,North,356,0.0,0.0,94,0.00,,,0.00,33,HR-IXPWINDi_r2_v1.2.,2013-09-10 13:05:00,
2013-09-10 09:10:00,70.3,68.4,30.10,North,356,0.0,0.0,94,0.00,,,0.00,67,HR-IXPWINDi_r2_v1.2.,2013-09-10 13:10:00,
2013-09-10 09:15:00,70.4,68.5,30.10,North,356,0.0,0.0,94,0.00,,,0.00,56,HR-IXPWINDi_r2_v1.2.,2013-09-10 13:15:00,
2013-09-10 09:21:00,70.4,68.5,30.11,North,356,0.0,0.0,94,0.00,,,0.00,48,HR-IXPWINDi_r2_v1.2.,2013-09-10 13:21:00,
2013-09-10 09:26:00,70.6,68.7,30.11,North,356,0.0,0.0,94,0.00,,,0.00,51,HR-IXPWINDi_r2_v1.2.,2013-09-10 13:26:00,
2013-09-10 09:31:00,70.8,68.9,30.11,North,356,0.0,0.0,94,0.00,,,0.00,53,HR-IXPWINDi_r2_v1.2.,2013-09-10 13:31:00,
2013-09-10 09:36:00,70.9,69.0,30.11,North,356,0.0,0.0,94,0.00,,,0.00,53,HR-IXPWINDi_r2_v1.2.,2013-09-10 13:36:00,
2013-09-10 09:42:00,70.9,69.0,30.11,North,356,0.0,0.0,94,0.00,,,0.00,55,HR-IXPWINDi_r2_v1.2.,2013-09-10 13:42:00,
2013-09-10 09:47:00,71.1,69.2,30.11,North,356,0.0,0.0,94,0.00,,,0.00,107,HR-IXPWINDi_r2_v1.2.,2013-09-10 13:47:00,
2013-09-10 09:52:00,71.3,69.4,30.10,North,356,0.0,0.0,94,0.00,,,0.00,69,HR-IXPWINDi_r2_v1.2.,2013-09-10 13:52:00,
2013-09-10 09:57:00,71.3,69.4,30.10,North,356,0.0,1.0,94,0.00,,,0.00,99,HR-IXPWINDi_r2_v1.2.,2013-09-10 13:57:00,
2013-09-10 10:02:00,71.6,69.7,30.10,North,0,0.0,3.0,94,0.00,,,0.00,109,HR-IXPWINDi_r2_v1.2.,2013-09-10 14:02:00,
2013-09-10 10:08:00,71.8,69.9,30.10,North,0,0.0,3.0,94,0.00,,,0.00,97,HR-IXPWINDi_r2_v1.2.,2013-09-10 14:08:00,
2013-09-10 10:13:00,72.0,70.1,30.10,North,0,0.0,0.0,94,0.00,,,0.00,88,HR-IXPWINDi_r2_v1.2.,2013-09-10 14:13:00,
2013-09-10 10:18:00,72.1,70.2,30.10,North,0,0.0,0.0,94,0.00,,,0.00,84,HR-IXPWINDi_r2_v1.2.,2013-09-10 14:18:00,
2013-09-10 10:23:00,72.3,70.4,30.11,North,0,0.0,0.0,94,0.00,,,0.00,65,HR-IXPWINDi_r2_v1.2.,2013-09-10 14:23:00,
2013-09-10 10:29:00,72.5,70.6,30.11,North,0,0.0,0.0,94,0.00,,,0.00,79,HR-IXPWINDi_r2_v1.2.,2013-09-10 14:29:00,
2013-09-10 10:34:00,72.5,70.6,30.11,North,0,0.0,0.0,94,0.00,,,0.00,81,HR-IXPWINDi_r2_v1.2.,2013-09-10 14:34:00,
2013-09-10 10:39:00,72.5,70.6,30.11,North,0,0.0,2.0,94,0.00,,,0.00,83,HR-IXPWINDi_r2_v1.2.,2013-09-10 14:39:00,
2013-09-10 10:44:00,72.8,70.9,30.11,North,0,0.0,2.0,94,0.00,,,0.00,76,HR-IXPWINDi_r2_v1.2.,2013-09-10 14:44:00,
2013-09-10 10:49:00,73.0,71.1,30.11,North,0,0.0,0.0,94,0.00,,,0.00,74,HR-IXPWINDi_r2_v1.2.,2013-09-10 14:49:00,
2013-09-10 10:54:00,73.0,71.1,30.11,North,0,0.0,0.0,94,0.00,,,0.00,58,HR-IXPWINDi_r2_v1.2.,2013-09-10 14:54:00,
2013-09-10 11:00:00,73.0,71.1,30.11,North,0,0.0,1.0,94,0.00,,,0.00,56,HR-IXPWINDi_r2_v1.2.,2013-09-10 15:00:00,
2013-09-10 11:05:00,73.2,71.3,30.11,North,0,0.0,1.0,94,0.00,,,0.00,42,HR-IXPWINDi_r2_v1.2.,2013-09-10 15:05:00,
2013-09-10 11:10:00,73.3,71.4,30.11,North,0,0.0,0.0,94,0.00,,,0.00,33,HR-IXPWINDi_r2_v1.2.,2013-09-10 15:10:00,
2013-09-10 11:15:00,73.3,71.4,30.11,North,0,0.0,0.0,94,0.00,,,0.00,33,HR-IXPWINDi_r2_v1.2.,2013-09-10 15:15:00,
2013-09-10 11:20:00,73.3,71.4,30.11,North,0,0.0,0.0,94,0.00,,,0.00,35,HR-IXPWINDi_r2_v1.2.,2013-09-10 15:20:00,
2013-09-10 11:25:00,73.5,71.6,30.11,North,0,0.0,0.0,94,0.00,,,0.00,46,HR-IXPWINDi_r2_v1.2.,2013-09-10 15:25:00,
2013-09-10 11:31:00,73.5,71.6,30.11,North,0,0.0,0.0,94,0.00,,,0.00,55,HR-IXPWINDi_r2_v1.2.,2013-09-10 15:31:00,
2013-09-10 11:36:00,73.5,71.6,30.11,North,0,0.0,0.0,94,0.00,,,0.00,84,HR-IXPWINDi_r2_v1.2.,2013-09-10 15:36:00,
2013-09-10 11:41:00,73.7,71.8,30.11,North,0,0.0,0.0,94,0.00,,,0.00,84,HR-IXPWINDi_r2_v1.2.,2013-09-10 15:41:00,
2013-09-10 11:46:00,74.0,72.1,30.11,North,0,0.0,0.0,94,0.00,,,0.00,144,HR-IXPWINDi_r2_v1.2.,2013-09-10 15:46:00,
2013-09-10 11:51:00,74.2,72.3,30.09,North,0,0.0,0.0,94,0.00,,,0.00,123,HR-IXPWINDi_r2_v1.2.,2013-09-10 15:51:00,
2013-09-10 11:57:00,74.4,72.5,30.09,North,0,0.0,0.0,94,0.00,,,0.00,99,HR-IXPWINDi_r2_v1.2.,2013-09-10 15:57:00,
2013-09-10 12:02:00,74.7,72.8,30.09,North,0,0.0,0.0,94,0.00,,,0.00,90,HR-IXPWINDi_r2_v1.2.,2013-09-10 16:02:00,
2013-09-10 12:07:00,74.9,73.0,30.09,North,0,0.0,0.0,94,0.00,,,0.00,97,HR-IXPWINDi_r2_v1.2.,2013-09-10 16:07:00,
2013-09-10 12:12:00,74.9,73.0,30.09,North,0,0.0,0.0,94,0.00,,,0.00,86,HR-IXPWINDi_r2_v1.2.,2013-09-10 16:12:00,
2013-09-10 12:17:00,75.1,73.2,30.09,North,0,0.0,0.0,94,0.00,,,0.00,107,HR-IXPWINDi_r2_v1.2.,2013-09-10 16:17:00,
2013-09-10 12:22:00,75.1,73.2,30.08,North,0,0.0,0.0,94,0.00,,,0.00,137,HR-IXPWINDi_r2_v1.2.,2013-09-10 16:22:00,
2013-09-10 12:27:00,75.1,73.2,30.08,North,0,0.0,0.0,94,0.00,,,0.00,114,HR-IXPWINDi_r2_v1.2.,2013-09-10 16:27:00,
2013-09-10 12:33:00,75.1,73.2,30.08,North,0,0.0,0.0,94,0.00,,,0.00,91,HR-IXPWINDi_r2_v1.2.,2013-09-10 16:33:00,
2013-09-10 12:38:00,74.7,72.8,30.07,North,0,0.0,2.0,94,0.00,,,0.00,137,HR-IXPWINDi_r2_v1.2.,2013-09-10 16:38:00,
2013-09-10 12:43:00,74.7,72.8,30.07,North,0,0.0,2.0,94,0.00,,,0.00,160,HR-IXPWINDi_r2_v1.2.,2013-09-10 16:43:00,
2013-09-10 12:48:00,74.9,73.0,30.07,North,0,0.0,1.0,94,0.00,,,0.00,190,HR-IXPWINDi_r2_v1.2.,2013-09-10 16:48:00,
2013-09-10 12:53:00,75.1,73.2,30.05,West,268,0.0,1.0,94,0.00,,,0.00,218,HR-IXPWINDi_r2_v1.2.,2013-09-10 16:53:00,
2013-09-10 12:59:00,75.4,73.2,30.05,SE,136,0.0,3.0,93,0.00,,,0.00,245,HR-IXPWINDi_r2_v1.2.,2013-09-10 16:59:00,
2013-09-10 13:04:00,75.8,73.6,30.04,SE,143,0.0,3.0,93,0.00,,,0.00,245,HR-IXPWINDi_r2_v1.2.,2013-09-10 17:04:00,
2013-09-10 13:09:00,76.0,73.5,30.04,SE,130,0.0,3.0,92,0.00,,,0.00,248,HR-IXPWINDi_r2_v1.2.,2013-09-10 17:09:00,
2013-09-10 13:14:00,76.1,73.5,30.04,ESE,107,0.0,3.0,92,0.00,,,0.00,215,HR-IXPWINDi_r2_v1.2.,2013-09-10 17:14:00,
2013-09-10 13:20:00,76.5,73.6,30.03,ESE,109,0.0,2.0,91,0.00,,,0.00,192,HR-IXPWINDi_r2_v1.2.,2013-09-10 17:20:00,
2013-09-10 13:25:00,76.7,73.5,30.03,ESE,109,0.0,2.0,90,0.00,,,0.00,209,HR-IXPWINDi_r2_v1.2.,2013-09-10 17:25:00,
2013-09-10 13:30:00,77.0,73.8,30.03,ESE,107,0.0,0.0,90,0.00,,,0.00,211,HR-IXPWINDi_r2_v1.2.,2013-09-10 17:30:00,
2013-09-10 13:35:00,76.8,72.9,30.02,ESE,110,0.0,3.0,88,0.00,,,0.00,230,HR-IXPWINDi_r2_v1.2.,2013-09-10 17:35:00,
2013-09-10 13:40:00,76.8,72.6,30.02,ESE,112,0.0,3.0,87,0.00,,,0.00,211,HR-IXPWINDi_r2_v1.2.,2013-09-10 17:40:00,
2013-09-10 13:45:00,77.2,72.6,30.02,North,6,0.0,5.0,86,0.00,,,0.00,248,HR-IXPWINDi_r2_v1.2.,2013-09-10 17:45:00,
2013-09-10 13:51:00,77.6,73.0,30.02,North,6,0.0,5.0,86,0.00,,,0.00,185,HR-IXPWINDi_r2_v1.2.,2013-09-10 17:51:00,
2013-09-10 13:56:00,77.7,72.8,30.02,North,8,0.0,3.0,85,0.00,,,0.00,216,HR-IXPWINDi_r2_v1.2.,2013-09-10 17:56:00,
2013-09-10 14:01:00,77.9,72.3,30.02,North,8,0.0,3.0,83,0.00,,,0.00,301,HR-IXPWINDi_r2_v1.2.,2013-09-10 18:01:00,
2013-09-10 14:06:00,78.3,72.3,30.02,North,8,0.0,2.0,82,0.00,,,0.00,201,HR-IXPWINDi_r2_v1.2.,2013-09-10 18:06:00,
2013-09-10 14:12:00,78.3,71.9,30.02,NNE,16,2.0,3.0,81,0.00,,,0.00,199,HR-IXPWINDi_r2_v1.2.,2013-09-10 18:12:00,
2013-09-10 14:17:00,78.5,71.4,30.02,ESE,104,0.0,3.0,79,0.00,,,0.00,162,HR-IXPWINDi_r2_v1.2.,2013-09-10 18:17:00,
2013-09-10 14:22:00,78.8,72.1,30.03,ESE,104,0.0,3.0,80,0.00,,,0.00,155,HR-IXPWINDi_r2_v1.2.,2013-09-10 18:22:00,
2013-09-10 14:27:00,79.0,72.2,30.03,East,99,0.0,2.0,80,0.00,,,0.00,116,HR-IXPWINDi_r2_v1.2.,2013-09-10 18:27:00,
2013-09-10 14:33:00,78.8,71.7,30.03,East,96,0.0,2.0,79,0.00,,,0.00,93,HR-IXPWINDi_r2_v1.2.,2013-09-10 18:33:00,
2013-09-10 14:38:00,79.2,72.4,30.03,East,96,0.0,2.0,80,0.00,,,0.00,308,HR-IXPWINDi_r2_v1.2.,2013-09-10 18:38:00,
2013-09-10 14:43:00,79.2,71.7,30.03,East,96,0.0,2.0,78,0.00,,,0.00,273,HR-IXPWINDi_r2_v1.2.,2013-09-10 18:43:00,
2013-09-10 14:48:00,79.2,71.7,30.03,East,96,0.0,2.0,78,0.00,,,0.00,241,HR-IXPWINDi_r2_v1.2.,2013-09-10 18:48:00,
2013-09-10 14:53:00,79.6,71.3,30.02,East,96,0.0,1.0,76,0.00,,,0.00,401,HR-IXPWINDi_r2_v1.2.,2013-09-10 18:53:00,
2013-09-10 14:58:00,79.9,71.6,30.02,ENE,66,1.0,3.0,76,0.00,,,0.00,449,HR-IXPWINDi_r2_v1.2.,2013-09-10 18:58:00,
2013-09-10 15:04:00,80.3,71.6,30.02,ENE,66,0.0,3.0,75,0.00,,,0.00,494,HR-IXPWINDi_r2_v1.2.,2013-09-10 19:04:00,
2013-09-10 15:09:00,80.7,71.6,30.02,ENE,66,0.0,3.0,74,0.00,,,0.00,477,HR-IXPWINDi_r2_v1.2.,2013-09-10 19:09:00,
2013-09-10 15:14:00,80.9,71.0,30.02,East,85,0.0,5.0,72,0.00,,,0.00,194,HR-IXPWINDi_r2_v1.2.,2013-09-10 19:14:00,
2013-09-10 15:19:00,81.1,70.8,30.02,SSE,168,2.0,5.0,71,0.00,,,0.00,174,HR-IXPWINDi_r2_v1.2.,2013-09-10 19:19:00,
2013-09-10 15:24:00,81.4,70.6,30.02,SSE,150,3.0,5.0,70,0.00,,,0.00,157,HR-IXPWINDi_r2_v1.2.,2013-09-10 19:24:00,
2013-09-10 15:29:00,81.6,71.2,30.02,SSE,150,0.0,3.0,71,0.00,,,0.00,114,HR-IXPWINDi_r2_v1.2.,2013-09-10 19:29:00,
2013-09-10 15:34:00,81.6,71.6,30.01,SSE,150,0.0,3.0,72,0.00,,,0.00,143,HR-IXPWINDi_r2_v1.2.,2013-09-10 19:34:00,
2013-09-10 15:39:00,81.4,71.5,30.01,SSE,150,0.0,0.0,72,0.00,,,0.00,179,HR-IXPWINDi_r2_v1.2.,2013-09-10 19:39:00,
2013-09-10 15:45:00,81.2,71.3,30.01,East,85,0.0,2.0,72,0.00,,,0.00,181,HR-IXPWINDi_r2_v1.2.,2013-09-10 19:45:00,
2013-09-10 15:50:00,81.6,71.6,30.01,East,86,0.0,3.0,72,0.00,,,0.00,209,HR-IXPWINDi_r2_v1.2.,2013-09-10 19:50:00,
2013-09-10 15:55:00,81.6,72.1,30.01,East,86,2.0,3.0,73,0.00,,,0.00,225,HR-IXPWINDi_r2_v1.2.,2013-09-10 19:55:00,
2013-09-10 16:00:00,81.4,70.6,30.01,East,88,0.0,3.0,70,0.00,,,0.00,125,HR-IXPWINDi_r2_v1.2.,2013-09-10 20:00:00,
2013-09-10 16:06:00,81.4,70.6,30.01,East,88,0.0,3.0,70,0.00,,,0.00,127,HR-IXPWINDi_r2_v1.2.,2013-09-10 20:06:00,
2013-09-10 16:11:00,81.6,71.2,30.01,ENE,65,0.0,1.0,71,0.00,,,0.00,127,HR-IXPWINDi_r2_v1.2.,2013-09-10 20:11:00,
2013-09-10 16:16:00,81.6,71.6,30.01,ENE,62,0.0,1.0,72,0.00,,,0.00,107,HR-IXPWINDi_r2_v1.2.,2013-09-10 20:16:00,
2013-09-10 16:21:00,81.6,71.6,30.01,ENE,62,0.0,1.0,72,0.00,,,0.00,99,HR-IXPWINDi_r2_v1.2.,2013-09-10 20:21:00,
2013-09-10 16:26:00,81.6,71.2,30.01,North,7,0.0,1.0,71,0.00,,,0.00,100,HR-IXPWINDi_r2_v1.2.,2013-09-10 20:26:00,
2013-09-10 16:32:00,81.6,71.2,30.01,West,277,0.0,1.0,71,0.00,,,0.00,106,HR-IXPWINDi_r2_v1.2.,2013-09-10 20:32:00,
2013-09-10 16:37:00,81.6,71.6,30.00,West,277,0.0,1.0,72,0.00,,,0.00,95,HR-IXPWINDi_r2_v1.2.,2013-09-10 20:37:00,
2013-09-10 16:42:00,81.6,71.6,30.00,West,272,0.0,1.0,72,0.00,,,0.00,88,HR-IXPWINDi_r2_v1.2.,2013-09-10 20:42:00,
2013-09-10 16:47:00,81.6,70.8,30.00,ESE,121,0.0,3.0,70,0.00,,,0.00,81,HR-IXPWINDi_r2_v1.2.,2013-09-10 20:47:00,
2013-09-10 16:52:00,81.8,70.6,30.00,ESE,120,0.0,3.0,69,0.00,,,0.00,72,HR-IXPWINDi_r2_v1.2.,2013-09-10 20:52:00,
2013-09-10 16:57:00,82.0,71.6,30.00,ESE,120,0.0,3.0,71,0.00,,,0.00,69,HR-IXPWINDi_r2_v1.2.,2013-09-10 20:57:00,
2013-09-10 17:03:00,82.0,71.6,30.00,ESE,120,0.0,0.0,71,0.00,,,0.00,72,HR-IXPWINDi_r2_v1.2.,2013-09-10 21:03:00,
2013-09-10 17:08:00,81.8,71.8,30.00,ESE,120,0.0,0.0,72,0.00,,,0.00,70,HR-IXPWINDi_r2_v1.2.,2013-09-10 21:08:00,
2013-09-10 17:14:00,81.6,72.5,30.00,ESE,120,0.0,0.0,74,0.00,,,0.00,63,HR-IXPWINDi_r2_v1.2.,2013-09-10 21:14:00,
2013-09-10 17:19:00,81.2,71.3,30.00,ESE,120,0.0,0.0,72,0.00,,,0.00,55,HR-IXPWINDi_r2_v1.2.,2013-09-10 21:19:00,
2013-09-10 17:25:00,81.2,71.3,30.00,ESE,120,0.0,0.0,72,0.00,,,0.00,49,HR-IXPWINDi_r2_v1.2.,2013-09-10 21:25:00,
2013-09-10 17:30:00,80.9,71.0,30.00,ESE,120,0.0,0.0,72,0.00,,,0.00,44,HR-IXPWINDi_r2_v1.2.,2013-09-10 21:30:00,
2013-09-10 17:35:00,80.5,71.0,30.00,ESE,120,0.0,0.0,73,0.00,,,0.00,35,HR-IXPWINDi_r2_v1.2.,2013-09-10 21:35:00,
2013-09-10 17:40:00,80.3,70.8,30.00,ESE,120,0.0,0.0,73,0.00,,,0.00,32,HR-IXPWINDi_r2_v1.2.,2013-09-10 21:40:00,
2013-09-10 17:45:00,80.3,70.8,30.00,ESE,120,0.0,0.0,73,0.00,,,0.00,28,HR-IXPWINDi_r2_v1.2.,2013-09-10 21:45:00,
2013-09-10 17:51:00,80.3,70.8,30.00,ESE,120,0.0,0.0,73,0.00,,,0.00,26,HR-IXPWINDi_r2_v1.2.,2013-09-10 21:51:00,
2013-09-10 17:56:00,80.3,70.8,30.00,ESE,120,0.0,1.0,73,0.00,,,0.00,23,HR-IXPWINDi_r2_v1.2.,2013-09-10 21:56:00,
2013-09-10 18:01:00,80.1,71.0,30.00,ESE,121,0.0,2.0,74,0.00,,,0.00,19,HR-IXPWINDi_r2_v1.2.,2013-09-10 22:01:00,
2013-09-10 18:06:00,79.9,70.4,30.01,ESE,120,0.0,2.0,73,0.00,,,0.00,19,HR-IXPWINDi_r2_v1.2.,2013-09-10 22:06:00,
2013-09-10 18:12:00,79.9,70.8,30.01,ESE,120,0.0,1.0,74,0.00,,,0.00,19,HR-IXPWINDi_r2_v1.2.,2013-09-10 22:12:00,
2013-09-10 18:17:00,79.9,71.2,30.01,ESE,120,0.0,0.0,75,0.00,,,0.00,18,HR-IXPWINDi_r2_v1.2.,2013-09-10 22:17:00,
2013-09-10 18:22:00,79.8,71.5,30.01,ESE,120,0.0,0.0,76,0.00,,,0.00,16,HR-IXPWINDi_r2_v1.2.,2013-09-10 22:22:00,
2013-09-10 18:27:00,79.6,71.7,30.01,ESE,120,0.0,0.0,77,0.00,,,0.00,14,HR-IXPWINDi_r2_v1.2.,2013-09-10 22:27:00,
2013-09-10 18:32:00,79.2,71.3,30.01,ESE,120,0.0,0.0,77,0.00,,,0.00,12,HR-IXPWINDi_r2_v1.2.,2013-09-10 22:32:00,
2013-09-10 18:37:00,79.0,71.5,30.01,ESE,120,0.0,0.0,78,0.00,,,0.00,11,HR-IXPWINDi_r2_v1.2.,2013-09-10 22:37:00,
2013-09-10 18:43:00,78.8,71.7,30.01,ESE,120,0.0,0.0,79,0.00,,,0.00,9,HR-IXPWINDi_r2_v1.2.,2013-09-10 22:43:00,
2013-09-10 18:48:00,78.6,71.5,30.01,ESE,120,0.0,0.0,79,0.00,,,0.00,7,HR-IXPWINDi_r2_v1.2.,2013-09-10 22:48:00,
2013-09-10 18:53:00,78.5,71.4,30.01,ESE,120,0.0,0.0,79,0.00,,,0.00,5,HR-IXPWINDi_r2_v1.2.,2013-09-10 22:53:00,
2013-09-10 18:58:00,78.3,71.6,30.01,ESE,120,0.0,0.0,80,0.00,,,0.00,0,HR-IXPWINDi_r2_v1.2.,2013-09-10 22:58:00,
2013-09-10 19:03:00,78.1,71.4,30.01,ESE,121,0.0,0.0,80,0.00,,,0.00,0,HR-IXPWINDi_r2_v1.2.,2013-09-10 23:03:00,
2013-09-10 19:08:00,77.9,71.2,30.02,ESE,120,0.0,0.0,80,0.00,,,0.00,0,HR-IXPWINDi_r2_v1.2.,2013-09-10 23:08:00,
2013-09-10 19:13:00,77.9,71.5,30.02,ESE,120,0.0,0.0,81,0.00,,,0.00,0,HR-IXPWINDi_r2_v1.2.,2013-09-10 23:13:00,
2013-09-10 19:18:00,77.7,71.3,30.02,ESE,120,0.0,0.0,81,0.00,,,0.00,0,HR-IXPWINDi_r2_v1.2.,2013-09-10 23:18:00,
2013-09-10 19:23:00,77.7,71.3,30.02,ESE,121,0.0,1.0,81,0.00,,,0.00,0,HR-IXPWINDi_r2_v1.2.,2013-09-10 23:23:00,
2013-09-10 19:29:00,77.6,71.6,30.02,ESE,121,0.0,1.0,82,0.00,,,0.00,0,HR-IXPWINDi_r2_v1.2.,2013-09-10 23:29:00,
2013-09-10 19:34:00,77.4,71.4,30.02,ESE,121,0.0,0.0,82,0.00,,,0.00,0,HR-IXPWINDi_r2_v1.2.,2013-09-10 23:34:00,
2013-09-10 19:39:00,77.4,71.4,30.02,ESE,121,0.0,0.0,82,0.00,,,0.00,0,HR-IXPWINDi_r2_v1.2.,2013-09-10 23:39:00,
2013-09-10 19:44:00,77.4,71.4,30.02,ESE,114,0.0,0.0,82,0.00,,,0.00,0,HR-IXPWINDi_r2_v1.2.,2013-09-10 23:44:00,
2013-09-10 19:49:00,77.2,71.2,30.03,ESE,121,0.0,0.0,82,0.00,,,0.00,0,HR-IXPWINDi_r2_v1.2.,2013-09-10 23:49:00,
2013-09-10 19:54:00,77.2,71.2,30.03,ESE,121,0.0,0.0,82,0.00,,,0.00,0,HR-IXPWINDi_r2_v1.2.,2013-09-10 23:54:00,
2013-09-10 19:59:00,77.0,71.4,30.03,ESE,121,0.0,0.0,83,0.00,,,0.00,0,HR-IXPWINDi_r2_v1.2.,2013-09-10 23:59:00,
2013-09-10 20:04:00,77.0,71.4,30.03,ESE,121,0.0,0.0,83,0.00,,,0.00,0,HR-IXPWINDi_r2_v1.2.,2013-09-11 00:04:00,
2013-09-10 20:09:00,76.8,71.2,30.03,ESE,121,0.0,0.0,83,0.00,,,0.00,0,HR-IXPWINDi_r2_v1.2.,2013-09-11 00:09:00,
2013-09-10 20:15:00,76.8,71.5,30.03,ESE,121,0.0,0.0,84,0.00,,,0.00,0,HR-IXPWINDi_r2_v1.2.,2013-09-11 00:15:00,
2013-09-10 20:20:00,76.7,71.4,30.03,ESE,121,0.0,0.0,84,0.00,,,0.00,0,HR-IXPWINDi_r2_v1.2.,2013-09-11 00:20:00,
2013-09-10 20:25:00,76.7,71.8,30.03,ESE,121,0.0,0.0,85,0.00,,,0.00,0,HR-IXPWINDi_r2_v1.2.,2013-09-11 00:25:00,
2013-09-10 20:30:00,76.5,71.6,30.03,ESE,121,0.0,0.0,85,0.00,,,0.00,0,HR-IXPWINDi_r2_v1.2.,2013-09-11 00:30:00,
2013-09-10 20:35:00,76.3,71.4,30.03,ESE,121,0.0,0.0,85,0.00,,,0.00,0,HR-IXPWINDi_r2_v1.2.,2013-09-11 00:35:00,
2013-09-10 20:40:00,76.1,71.5,30.03,ESE,121,0.0,0.0,86,0.00,,,0.00,0,HR-IXPWINDi_r2_v1.2.,2013-09-11 00:40:00,
2013-09-10 20:46:00,76.1,71.5,30.03,ESE,121,0.0,0.0,86,0.00,,,0.00,0,HR-IXPWINDi_r2_v1.2.,2013-09-11 00:46:00,
2013-09-10 20:51:00,76.0,71.5,30.03,ESE,121,0.0,0.0,86,0.00,,,0.00,0,HR-IXPWINDi_r2_v1.2.,2013-09-11 00:51:00,
2013-09-10 20:56:00,76.0,71.8,30.03,ESE,121,0.0,0.0,87,0.00,,,0.00,0,HR-IXPWINDi_r2_v1.2.,2013-09-11 00:56:00,
2013-09-10 21:01:00,76.0,71.8,30.03,ESE,121,0.0,0.0,87,0.00,,,0.00,0,HR-IXPWINDi_r2_v1.2.,2013-09-11 01:01:00,
2013-09-10 21:06:00,76.1,71.9,30.04,ESE,121,0.0,0.0,87,0.00,,,0.00,0,HR-IXPWINDi_r2_v1.2.,2013-09-11 01:06:00,
2013-09-10 21:11:00,76.1,71.9,30.04,ESE,121,0.0,0.0,87,0.00,,,0.00,0,HR-IXPWINDi_r2_v1.2.,2013-09-11 01:11:00,
2013-09-10 21:16:00,76.1,71.9,30.04,ESE,121,0.0,0.0,87,0.00,,,0.00,0,HR-IXPWINDi_r2_v1.2.,2013-09-11 01:16:00,
2013-09-10 21:22:00,76.1,71.9,30.04,ESE,121,0.0,0.0,87,0.00,,,0.00,0,HR-IXPWINDi_r2_v1.2.,2013-09-11 01:22:00,
2013-09-10 21:27:00,76.1,72.2,30.04,ESE,121,0.0,0.0,88,0.00,,,0.00,0,HR-IXPWINDi_r2_v1.2.,2013-09-11 01:27:00,
2013-09-10 21:32:00,76.1,72.2,30.04,ESE,121,0.0,0.0,88,0.00,,,0.00,0,HR-IXPWINDi_r2_v1.2.,2013-09-11 01:32:00,
2013-09-10 21:37:00,76.1,72.2,30.04,ESE,121,0.0,0.0,88,0.00,,,0.00,0,HR-IXPWINDi_r2_v1.2.,2013-09-11 01:37:00,
2013-09-10 21:43:00,76.1,72.2,30.04,ESE,121,0.0,0.0,88,0.00,,,0.00,0,HR-IXPWINDi_r2_v1.2.,2013-09-11 01:43:00,
2013-09-10 21:48:00,76.1,72.2,30.04,ESE,121,0.0,0.0,88,0.00,,,0.00,0,HR-IXPWINDi_r2_v1.2.,2013-09-11 01:48:00,
2013-09-10 21:53:00,76.1,72.2,30.04,ESE,121,0.0,0.0,88,0.00,,,0.00,0,HR-IXPWINDi_r2_v1.2.,2013-09-11 01:53:00,
2013-09-10 21:58:00,76.1,72.2,30.04,ESE,121,0.0,0.0,88,0.00,,,0.00,0,HR-IXPWINDi_r2_v1.2.,2013-09-11 01:58:00,
2013-09-10 22:03:00,76.1,72.2,30.04,ESE,121,0.0,0.0,88,0.00,,,0.00,0,HR-IXPWINDi_r2_v1.2.,2013-09-11 02:03:00,
2013-09-10 22:08:00,76.1,72.2,30.04,ESE,121,0.0,0.0,88,0.00,,,0.00,0,HR-IXPWINDi_r2_v1.2.,2013-09-11 02:08:00,
2013-09-10 22:13:00,76.1,72.2,30.04,ESE,121,0.0,0.0,88,0.00,,,0.00,0,HR-IXPWINDi_r2_v1.2.,2013-09-11 02:13:00,
2013-09-10 22:19:00,76.1,72.2,30.04,ESE,121,0.0,0.0,88,0.00,,,0.00,0,HR-IXPWINDi_r2_v1.2.,2013-09-11 02:19:00,
2013-09-10 22:24:00,76.1,72.6,30.04,ESE,121,0.0,0.0,89,0.00,,,0.00,0,HR-IXPWINDi_r2_v1.2.,2013-09-11 02:24:00,
2013-09-10 22:29:00,76.1,72.6,30.04,ESE,121,0.0,0.0,89,0.00,,,0.00,0,HR-IXPWINDi_r2_v1.2.,2013-09-11 02:29:00,
2013-09-10 22:34:00,76.1,72.6,30.05,ESE,121,0.0,0.0,89,0.00,,,0.00,0,HR-IXPWINDi_r2_v1.2.,2013-09-11 02:34:00,
2013-09-10 22:39:00,76.3,72.8,30.05,ESE,121,0.0,0.0,89,0.00,,,0.00,0,HR-IXPWINDi_r2_v1.2.,2013-09-11 02:39:00,
2013-09-10 22:45:00,76.5,73.0,30.05,ESE,121,0.0,0.0,89,0.00,,,0.00,0,HR-IXPWINDi_r2_v1.2.,2013-09-11 02:45:00,
2013-09-10 22:50:00,76.5,72.6,30.04,ESE,121,0.0,0.0,88,0.00,,,0.00,0,HR-IXPWINDi_r2_v1.2.,2013-09-11 02:50:00,
2013-09-10 22:55:00,76.5,72.6,30.04,ESE,121,0.0,0.0,88,0.00,,,0.00,0,HR-IXPWINDi_r2_v1.2.,2013-09-11 02:55:00,
2013-09-10 23:00:00,76.5,72.6,30.04,ESE,121,0.0,0.0,88,0.00,,,0.00,0,HR-IXPWINDi_r2_v1.2.,2013-09-11 03:00:00,
2013-09-10 23:05:00,76.5,72.6,30.04,ESE,121,0.0,0.0,88,0.00,,,0.00,0,HR-IXPWINDi_r2_v1.2.,2013-09-11 03:05:00,
2013-09-10 23:10:00,76.5,72.6,30.04,ESE,121,0.0,0.0,88,0.00,,,0.00,0,HR-IXPWINDi_r2_v1.2.,2013-09-11 03:10:00,
2013-09-10 23:16:00,76.5,72.6,30.04,ESE,121,0.0,0.0,88,0.00,,,0.00,0,HR-IXPWINDi_r2_v1.2.,2013-09-11 03:16:00,
2013-09-10 23:21:00,76.7,72.8,30.05,ESE,121,0.0,0.0,88,0.00,,,0.00,0,HR-IXPWINDi_r2_v1.2.,2013-09-11 03:21:00,
2013-09-10 23:26:00,76.7,72.8,30.05,ESE,121,0.0,0.0,88,0.00,,,0.00,0,HR-IXPWINDi_r2_v1.2.,2013-09-11 03:26:00,
2013-09-10 23:31:00,76.7,72.8,30.05,ESE,121,0.0,0.0,88,0.00,,,0.00,0,HR-IXPWINDi_r2_v1.2.,2013-09-11 03:31:00,
2013-09-10 23:37:00,76.7,72.8,30.05,ESE,121,0.0,0.0,88,0.00,,,0.00,0,HR-IXPWINDi_r2_v1.2.,2013-09-11 03:37:00,
2013-09-10 23:42:00,76.7,72.8,30.05,ESE,121,0.0,0.0,88,0.00,,,0.00,0,HR-IXPWINDi_r2_v1.2.,2013-09-11 03:42:00,
2013-09-10 23:47:00,76.7,72.8,30.05,ESE,121,0.0,0.0,88,0.00,,,0.00,0,HR-IXPWINDi_r2_v1.2.,2013-09-11 03:47:00,
2013-09-10 23:52:00,76.7,72.5,30.05,ESE,121,0.0,0.0,87,0.00,,,0.00,0,HR-IXPWINDi_r2_v1.2.,2013-09-11 03:52:00,
2013-09-10 23:57:00,76.8,72.6,30.05,ESE,121,0.0,0.0,87,0.00,,,0.00,0,HR-IXPWINDi_r2_v1.2.,2013-09-11 03:57:00,